| time (UTC) | temp F | wind direction | speed MPH | gust MPH | rain 1hr in | rain 24hr in | rain mn in | humidity % | barometer mb |
| 20260504185000 | 73 | 240 | 0.0 | 4.0 | 0.00 | 0.00 | 0.00 | 36 | 1006.6 |
| 20260504184451 | 72 | 294 | 0.0 | 5.0 | 0.00 | 0.00 | 0.00 | 34 | 1006.6 |
| 20260504183952 | 72 | 258 | 1.0 | 5.0 | 0.00 | 0.00 | 0.00 | 34 | 1006.7 |
| 20260504183448 | 72 | 247 | 1.0 | 10.0 | 0.00 | 0.00 | 0.00 | 36 | 1006.7 |
| 20260504182947 | 71 | 267 | 0.0 | 10.0 | 0.00 | 0.00 | 0.00 | 36 | 1006.8 |
| 20260504182444 | 71 | 259 | 0.0 | 8.0 | 0.00 | 0.00 | 0.00 | 38 | 1006.8 |
| 20260504182427 | 71 | 278 | 1.0 | 8.0 | 0.00 | 0.00 | 0.00 | 36 | 1006.9 |
| 20260504181443 | 71 | 258 | 1.0 | 7.0 | 0.00 | 0.00 | 0.00 | 38 | 1006.9 |
| 20260504180937 | 71 | 288 | 1.0 | 12.0 | 0.00 | 0.00 | 0.00 | 40 | 1006.9 |
| 20260504180439 | 70 | 267 | 1.0 | 12.0 | 0.00 | 0.00 | 0.00 | 38 | 1006.9 |
| 20260504180428 | 70 | 258 | 0.0 | 7.0 | 0.00 | 0.00 | 0.00 | 40 | 1007.1 |
| 20260504175659 | 71 | 249 | 0.0 | 4.0 | 0.00 | 0.00 | 0.00 | 37 | 1007.2 |
| 20260504174934 | 71 | 279 | 0.0 | 9.0 | 0.00 | 0.00 | 0.00 | 39 | 1007.2 |
| 20260504174434 | 70 | 250 | 0.0 | 9.0 | 0.00 | 0.00 | 0.00 | 36 | 1007.2 |
| 20260504173933 | 70 | 254 | 0.0 | 1.0 | 0.00 | 0.00 | 0.00 | 40 | 1007.2 |
| 20260504173640 | 71 | 169 | 0.0 | 1.0 | 0.00 | 0.00 | 0.00 | 37 | 1007.3 |
| 20260504172905 | 70 | 271 | 0.0 | 11.0 | 0.00 | 0.00 | 0.00 | 41 | 1007.3 |
| 20260504172405 | 70 | 254 | 1.0 | 11.0 | 0.00 | 0.00 | 0.00 | 38 | 1007.4 |
| 20260504171905 | 69 | 0 | 0.0 | 9.0 | 0.00 | 0.00 | 0.00 | 38 | 1007.4 |
| 20260504171405 | 69 | 246 | 0.0 | 7.0 | 0.00 | 0.00 | 0.00 | 40 | 1007.4 |
| 20260504170906 | 70 | 271 | 1.0 | 11.0 | 0.00 | 0.00 | 0.00 | 43 | 1007.5 |
| 20260504170405 | 69 | 252 | 1.0 | 11.0 | 0.00 | 0.00 | 0.00 | 39 | 1007.6 |
| 20260504160348 | 68 | 222 | 0.0 | 10.0 | 0.00 | 0.00 | 0.00 | 41 | 1008.3 |
| 20260504160331 | 67 | 267 | 1.0 | 10.0 | 0.00 | 0.00 | 0.00 | 40 | 1008.5 |
| 20260504150834 | 65 | 252 | 1.0 | 10.0 | 0.00 | 0.00 | 0.00 | 40 | 1009.1 |
| 20260504150335 | 65 | 0 | 0.0 | 7.0 | 0.00 | 0.00 | 0.00 | 43 | 1009.1 |
| 20260504141217 | 61 | 277 | 0.0 | 7.0 | 0.00 | 0.00 | 0.00 | 46 | 1009.6 |
| 20260504140714 | 60 | 257 | 0.0 | 7.0 | 0.00 | 0.00 | 0.00 | 45 | 1009.6 |
| 20260504140212 | 59 | 251 | 1.0 | 11.0 | 0.00 | 0.00 | 0.00 | 45 | 1009.7 |
| 20260504130701 | 54 | 277 | 0.0 | 0.0 | 0.00 | 0.00 | 0.00 | 54 | 1010.0 |
| 20260504130402 | 54 | 295 | 0.0 | 0.0 | 0.00 | 0.00 | 0.00 | 53 | 1010.1 |
| 20260504120132 | 53 | 314 | 0.0 | 3.0 | 0.00 | 0.00 | 0.00 | 54 | 1010.2 |
| 20260504110252 | 49 | 242 | 0.0 | 6.0 | 0.00 | 0.00 | 0.00 | 60 | 1010.1 |
| 20260504100229 | 43 | 250 | 0.0 | 0.0 | 0.00 | 0.00 | 0.00 | 73 | 1010.0 |
| 20260504081632 | 39 | 275 | 0.0 | 0.0 | 0.00 | 0.00 | 0.00 | 82 | 1010.3 |
| 20260504081347 | 39 | 275 | 0.0 | 0.0 | 0.00 | 0.00 | 0.00 | 82 | 1010.4 |
| 20260504080616 | 39 | 275 | 0.0 | 0.0 | 0.00 | 0.00 | 0.00 | 82 | 1010.4 |
| 20260504080113 | 39 | 275 | 0.0 | 0.0 | 0.00 | 0.00 | 0.00 | 82 | 1010.5 |
| 20260504050325 | 43 | 275 | 0.0 | 0.0 | 0.00 | 0.00 | 0.00 | 73 | 1010.8 |
| 20260504045759 | 43 | 275 | 0.0 | 0.0 | 0.00 | 0.00 | 0.00 | 72 | 1010.8 |
| 20260504045233 | 44 | 275 | 0.0 | 0.0 | 0.00 | 0.00 | 0.00 | 71 | 1010.8 |
| 20260504044707 | 44 | 275 | 0.0 | 0.0 | 0.00 | 0.00 | 0.00 | 71 | 1010.8 |
| 20260504044138 | 44 | 275 | 0.0 | 0.0 | 0.00 | 0.00 | 0.00 | 71 | 1010.8 |
| 20260504043622 | 44 | 275 | 0.0 | 0.0 | 0.00 | 0.00 | 0.00 | 71 | 1010.8 |
| 20260504043122 | 45 | 275 | 0.0 | 0.0 | 0.00 | 0.00 | 0.00 | 70 | 1010.8 |
| 20260504042558 | 45 | 275 | 0.0 | 0.0 | 0.00 | 0.00 | 0.00 | 70 | 1010.8 |
| 20260504042301 | 45 | 275 | 0.0 | 0.0 | 0.00 | 0.00 | 0.00 | 70 | 1010.6 |
| 20260504041755 | 46 | 275 | 0.0 | 0.0 | 0.00 | 0.00 | 0.00 | 70 | 1010.6 |
| 20260504041303 | 46 | 275 | 0.0 | 0.0 | 0.00 | 0.00 | 0.00 | 70 | 1010.6 |
| 20260504040530 | 46 | 275 | 0.0 | 0.0 | 0.00 | 0.00 | 0.00 | 70 | 1010.6 |
| 20260504040251 | 46 | 275 | 0.0 | 0.0 | 0.00 | 0.00 | 0.00 | 69 | 1010.6 |
| 20260504035528 | 46 | 275 | 0.0 | 0.0 | 0.00 | 0.00 | 0.00 | 69 | 1010.6 |
| 20260504035027 | 46 | 275 | 0.0 | 0.0 | 0.00 | 0.00 | 0.00 | 69 | 1010.8 |
| 20260504034526 | 47 | 275 | 0.0 | 0.0 | 0.00 | 0.00 | 0.00 | 69 | 1010.6 |
| 20260504034023 | 47 | 275 | 0.0 | 0.0 | 0.00 | 0.00 | 0.00 | 69 | 1010.8 |
| 20260504033518 | 47 | 275 | 0.0 | 0.0 | 0.00 | 0.00 | 0.00 | 69 | 1010.8 |
| 20260504033016 | 47 | 275 | 0.0 | 0.0 | 0.00 | 0.00 | 0.00 | 69 | 1010.8 |
| 20260504032513 | 47 | 275 | 0.0 | 0.0 | 0.00 | 0.00 | 0.00 | 69 | 1010.8 |
| 20260504032011 | 47 | 275 | 0.0 | 0.0 | 0.00 | 0.00 | 0.00 | 69 | 1010.8 |
| 20260504031511 | 47 | 275 | 0.0 | 0.0 | 0.00 | 0.00 | 0.00 | 69 | 1010.8 |
| 20260504031009 | 48 | 275 | 0.0 | 0.0 | 0.00 | 0.00 | 0.00 | 69 | 1010.6 |
| 20260504030510 | 48 | 275 | 0.0 | 0.0 | 0.00 | 0.00 | 0.00 | 68 | 1010.6 |
| 20260504025948 | 48 | 275 | 0.0 | 0.0 | 0.00 | 0.00 | 0.00 | 68 | 1010.8 |
| 20260504025444 | 48 | 275 | 0.0 | 0.0 | 0.00 | 0.00 | 0.00 | 67 | 1010.6 |
| 20260504024942 | 48 | 275 | 0.0 | 0.0 | 0.00 | 0.00 | 0.00 | 67 | 1010.8 |
| 20260504024440 | 49 | 275 | 0.0 | 0.0 | 0.00 | 0.00 | 0.00 | 66 | 1010.9 |
| 20260504023938 | 49 | 275 | 0.0 | 0.0 | 0.00 | 0.00 | 0.00 | 66 | 1010.9 |
| 20260504023438 | 49 | 275 | 0.0 | 0.0 | 0.00 | 0.00 | 0.00 | 65 | 1010.9 |
| 20260504022937 | 49 | 275 | 0.0 | 0.0 | 0.00 | 0.00 | 0.00 | 64 | 1011.0 |
| 20260504022437 | 49 | 275 | 0.0 | 0.0 | 0.00 | 0.00 | 0.00 | 63 | 1010.9 |
| 20260504021935 | 49 | 275 | 0.0 | 0.0 | 0.00 | 0.00 | 0.00 | 63 | 1010.9 |
| 20260504021434 | 49 | 275 | 0.0 | 0.0 | 0.00 | 0.00 | 0.00 | 62 | 1010.9 |
| 20260504020927 | 49 | 275 | 0.0 | 0.0 | 0.00 | 0.00 | 0.00 | 60 | 1010.9 |
| 20260504020425 | 49 | 275 | 0.0 | 0.0 | 0.00 | 0.00 | 0.00 | 60 | 1011.0 |
| 20260504015924 | 50 | 275 | 0.0 | 0.0 | 0.00 | 0.00 | 0.00 | 60 | 1010.9 |
| 20260504015417 | 50 | 275 | 0.0 | 0.0 | 0.00 | 0.00 | 0.00 | 60 | 1010.9 |
| 20260504014916 | 50 | 275 | 0.0 | 0.0 | 0.00 | 0.00 | 0.00 | 60 | 1010.8 |
| 20260504014411 | 50 | 275 | 0.0 | 0.0 | 0.00 | 0.00 | 0.00 | 60 | 1010.9 |
| 20260504013914 | 50 | 275 | 0.0 | 0.0 | 0.00 | 0.00 | 0.00 | 58 | 1010.8 |
| 20260504013550 | 50 | 275 | 0.0 | 0.0 | 0.00 | 0.00 | 0.00 | 58 | 1010.6 |
| 20260504013438 | 50 | 275 | 0.0 | 0.0 | 0.00 | 0.00 | 0.00 | 57 | 1010.8 |
| 20260504012828 | 50 | 275 | 0.0 | 0.0 | 0.00 | 0.00 | 0.00 | 58 | 1010.8 |
| 20260504011841 | 51 | 275 | 0.0 | 0.0 | 0.00 | 0.00 | 0.00 | 56 | 1010.6 |
| 20260504011341 | 51 | 275 | 0.0 | 0.0 | 0.00 | 0.00 | 0.00 | 55 | 1010.6 |
| 20260504010840 | 51 | 275 | 0.0 | 0.0 | 0.00 | 0.00 | 0.00 | 54 | 1010.5 |
| 20260504010338 | 52 | 275 | 0.0 | 0.0 | 0.00 | 0.00 | 0.00 | 54 | 1010.3 |
| 20260504010056 | 52 | 275 | 0.0 | 0.0 | 0.00 | 0.00 | 0.00 | 54 | 1010.3 |
| 20260504005334 | 53 | 275 | 0.0 | 0.0 | 0.00 | 0.00 | 0.00 | 54 | 1010.3 |
| 20260504004833 | 53 | 275 | 0.0 | 0.0 | 0.00 | 0.00 | 0.00 | 52 | 1010.3 |
| 20260504004327 | 53 | 275 | 0.0 | 0.0 | 0.00 | 0.00 | 0.00 | 51 | 1010.2 |
| 20260504004053 | 53 | 275 | 0.0 | 0.0 | 0.00 | 0.00 | 0.00 | 49 | 1010.2 |
| 20260504003550 | 53 | 275 | 0.0 | 0.0 | 0.00 | 0.00 | 0.00 | 48 | 1010.1 |
| 20260504002827 | 53 | 275 | 0.0 | 0.0 | 0.00 | 0.00 | 0.00 | 49 | 1010.1 |
| 20260504002522 | 54 | 275 | 0.0 | 0.0 | 0.00 | 0.00 | 0.00 | 50 | 1010.0 |
| 20260504001733 | 54 | 275 | 0.0 | 0.0 | 0.00 | 0.00 | 0.00 | 45 | 1009.9 |
| 20260504001205 | 55 | 275 | 0.0 | 0.0 | 0.00 | 0.00 | 0.00 | 46 | 1009.9 |
| 20260504000638 | 55 | 275 | 0.0 | 0.0 | 0.00 | 0.00 | 0.00 | 45 | 1009.8 |
| 20260504000111 | 55 | 275 | 0.0 | 0.0 | 0.00 | 0.00 | 0.00 | 45 | 1009.8 |
| 20260503235548 | 55 | 275 | 0.0 | 0.0 | 0.00 | 0.00 | 0.00 | 43 | 1009.8 |
| 20260503235022 | 55 | 275 | 0.0 | 0.0 | 0.00 | 0.00 | 0.00 | 43 | 1009.8 |
| 20260503234454 | 56 | 272 | 0.0 | 0.0 | 0.00 | 0.00 | 0.00 | 42 | 1009.6 |
| 20260503234204 | 56 | 272 | 0.0 | 4.0 | 0.00 | 0.00 | 0.00 | 42 | 1009.6 |
| 20260503233439 | 56 | 273 | 0.0 | 4.0 | 0.00 | 0.00 | 0.00 | 41 | 1009.5 |
| 20260503233138 | 56 | 289 | 0.0 | 0.0 | 0.00 | 0.00 | 0.00 | 42 | 1009.6 |
| 20260503232350 | 56 | 289 | 0.0 | 0.0 | 0.00 | 0.00 | 0.00 | 42 | 1009.6 |
| 20260503231822 | 56 | 278 | 0.0 | 0.0 | 0.00 | 0.00 | 0.00 | 43 | 1009.6 |
| 20260503231257 | 56 | 279 | 0.0 | 0.0 | 0.00 | 0.00 | 0.00 | 43 | 1009.5 |
| 20260503231001 | 56 | 281 | 0.0 | 0.0 | 0.00 | 0.00 | 0.00 | 42 | 1009.6 |
| 20260503230204 | 56 | 271 | 0.0 | 0.0 | 0.00 | 0.00 | 0.00 | 42 | 1009.6 |
| 20260503225700 | 56 | 271 | 0.0 | 0.0 | 0.00 | 0.00 | 0.00 | 42 | 1009.6 |
| 20260503225201 | 56 | 271 | 0.0 | 0.0 | 0.00 | 0.00 | 0.00 | 41 | 1009.6 |
| 20260503224658 | 56 | 272 | 0.0 | 0.0 | 0.00 | 0.00 | 0.00 | 41 | 1009.6 |
| 20260503224425 | 56 | 272 | 0.0 | 1.0 | 0.00 | 0.00 | 0.00 | 42 | 1009.7 |
| 20260503223653 | 56 | 273 | 0.0 | 2.0 | 0.00 | 0.00 | 0.00 | 41 | 1009.7 |
| 20260503223151 | 56 | 0 | 0.0 | 2.0 | 0.00 | 0.00 | 0.00 | 42 | 1009.7 |
| 20260503222911 | 56 | 274 | 0.0 | 0.0 | 0.00 | 0.00 | 0.00 | 41 | 1009.7 |
| 20260503222152 | 56 | 289 | 0.0 | 4.0 | 0.00 | 0.00 | 0.00 | 42 | 1009.7 |
| 20260503221653 | 56 | 269 | 0.0 | 4.0 | 0.00 | 0.00 | 0.00 | 42 | 1009.8 |
| 20260503221149 | 56 | 0 | 0.0 | 0.0 | 0.00 | 0.00 | 0.00 | 43 | 1009.7 |
| 20260503220648 | 56 | 0 | 0.0 | 0.0 | 0.00 | 0.00 | 0.00 | 43 | 1009.7 |
| 20260503220146 | 56 | 0 | 0.0 | 1.0 | 0.00 | 0.00 | 0.00 | 43 | 1009.8 |
| 20260503215646 | 56 | 0 | 0.0 | 2.0 | 0.00 | 0.00 | 0.00 | 43 | 1009.8 |
| 20260503215145 | 56 | 0 | 0.0 | 2.0 | 0.00 | 0.00 | 0.00 | 43 | 1009.9 |
| 20260503214643 | 56 | 0 | 0.0 | 0.0 | 0.00 | 0.00 | 0.00 | 43 | 1009.9 |
| 20260503214410 | 56 | 0 | 0.0 | 0.0 | 0.00 | 0.00 | 0.00 | 44 | 1009.9 |
| 20260503213641 | 56 | 0 | 0.0 | 0.0 | 0.00 | 0.00 | 0.00 | 43 | 1009.9 |
| 20260503213140 | 56 | 0 | 0.0 | 0.0 | 0.00 | 0.00 | 0.00 | 43 | 1009.9 |
| 20260503212640 | 56 | 294 | 0.0 | 1.0 | 0.00 | 0.00 | 0.00 | 44 | 1009.9 |
| 20260503212139 | 56 | 0 | 0.0 | 7.0 | 0.00 | 0.00 | 0.00 | 44 | 1009.9 |
| 20260503211640 | 56 | 0 | 0.0 | 7.0 | 0.00 | 0.00 | 0.00 | 44 | 1009.9 |
| 20260503211138 | 56 | 289 | 0.0 | 6.0 | 0.00 | 0.00 | 0.00 | 44 | 1009.9 |
| 20260503210637 | 56 | 296 | 0.0 | 6.0 | 0.00 | 0.00 | 0.00 | 43 | 1010.0 |
| 20260503210139 | 56 | 0 | 0.0 | 1.0 | 0.00 | 0.00 | 0.00 | 44 | 1010.0 |
| 20260503205637 | 56 | 274 | 0.0 | 7.0 | 0.00 | 0.00 | 0.00 | 43 | 1010.0 |
| 20260503205138 | 56 | 0 | 0.0 | 7.0 | 0.00 | 0.00 | 0.00 | 43 | 1009.9 |
| 20260503204635 | 56 | 293 | 2.0 | 12.0 | 0.00 | 0.00 | 0.00 | 44 | 1010.1 |
| 20260503204133 | 56 | 277 | 3.0 | 17.0 | 0.00 | 0.00 | 0.00 | 44 | 1010.2 |
| 20260503203633 | 56 | 336 | 2.0 | 17.0 | 0.00 | 0.00 | 0.00 | 44 | 1010.2 |
| 20260503203619 | 55 | 289 | 1.0 | 15.0 | 0.00 | 0.00 | 0.00 | 44 | 1010.3 |
| 20260503202632 | 55 | 286 | 0.0 | 7.0 | 0.00 | 0.00 | 0.00 | 43 | 1010.3 |
| 20260503202357 | 55 | 253 | 0.0 | 8.0 | 0.00 | 0.00 | 0.00 | 42 | 1010.2 |
| 20260503201634 | 56 | 313 | 1.0 | 8.0 | 0.00 | 0.00 | 0.00 | 42 | 1010.1 |
| 20260503201134 | 56 | 275 | 1.0 | 14.0 | 0.00 | 0.00 | 0.00 | 39 | 1010.2 |
| 20260503200634 | 56 | 284 | 1.0 | 14.0 | 0.00 | 0.00 | 0.00 | 38 | 1010.2 |
| 20260503200119 | 56 | 297 | 1.0 | 14.0 | 0.00 | 0.00 | 0.00 | 38 | 1010.1 |
| 20260503195847 | 56 | 294 | 1.0 | 14.0 | 0.00 | 0.00 | 0.00 | 38 | 1010.1 |
| 20260503195119 | 57 | 266 | 1.0 | 15.0 | 0.00 | 0.00 | 0.00 | 36 | 1010.0 |
| 20260503194620 | 57 | 0 | 1.0 | 15.0 | 0.00 | 0.00 | 0.00 | 37 | 1010.1 |
| 20260503194120 | 56 | 290 | 0.0 | 4.0 | 0.00 | 0.00 | 0.00 | 38 | 1010.2 |
| 20260503193840 | 56 | 263 | 1.0 | 12.0 | 0.00 | 0.00 | 0.00 | 36 | 1010.3 |
| 20260503193116 | 56 | 271 | 1.0 | 12.0 | 0.00 | 0.00 | 0.00 | 37 | 1010.4 |
| 20260503192615 | 56 | 271 | 0.0 | 1.0 | 0.00 | 0.00 | 0.00 | 39 | 1010.4 |
| 20260503192112 | 56 | 287 | 0.0 | 3.0 | 0.00 | 0.00 | 0.00 | 37 | 1010.4 |
| 20260503191610 | 56 | 288 | 0.0 | 4.0 | 0.00 | 0.00 | 0.00 | 37 | 1010.4 |
| 20260503191112 | 56 | 286 | 1.0 | 9.0 | 0.00 | 0.00 | 0.00 | 37 | 1010.4 |
| 20260503190605 | 56 | 254 | 1.0 | 9.0 | 0.00 | 0.00 | 0.00 | 36 | 1010.4 |
| 20260503185600 | 56 | 300 | 0.0 | 1.0 | 0.00 | 0.00 | 0.00 | 38 | 1010.6 |